This is the latest recevied weather packets stored in our database for station/object KA1JKB. If no packets are shown the sender has not sent any weather packets the latest 10 day(s).
| Time | Temp. | Humidity | Pressure | Rain* | Wind** | Luminosity | Snow |
|---|---|---|---|---|---|---|---|
| 1777382715 | 15.56° C | 92% | 1005.9 hPa | 0 mm | - | 118 W/m² | - |
| 1777382410 | 15.56° C | 92% | 1005.7 hPa | 0 mm | - | 133 W/m² | - |
| 1777382107 | 16.11° C | 93% | 1005.4 hPa | 0 mm | - | 108 W/m² | - |
| 1777379376 | 15.56° C | 96% | 1005 hPa | 0 mm | - | 137 W/m² | - |
| 1777378767 | 15.56° C | 99% | 1004.8 hPa | 0 mm | - | 124 W/m² | - |
| 1777378160 | 15° C | 99% | 1004.6 hPa | 0 mm | - | 49 W/m² | - |
| 1777377859 | 15° C | 99% | 1004.7 hPa | 0 mm | - | 26 W/m² | - |
| 1777377254 | 15° C | 99% | 1004.4 hPa | 0 mm | - | 20 W/m² | - |
| 1777376952 | 15° C | 99% | 1004.4 hPa | 0 mm | - | 23 W/m² | - |
| 1777376346 | 15° C | 99% | 1004.2 hPa | 0 mm | - | 26 W/m² | - |
| 1777375740 | 15° C | 99% | 1004.1 hPa | 0 mm | - | 13 W/m² | - |
| 1777375133 | 15° C | 99% | 1004.2 hPa | 0 mm | - | 8 W/m² | - |
| 1777372706 | 15° C | 99% | 1003.2 hPa | 0 mm | - | 0 W/m² | - |
| 1777372405 | 15° C | 99% | 1003.4 hPa | 0 mm | - | 0 W/m² | - |
| 1777372104 | 15° C | 99% | 1003.2 hPa | 0 mm | - | 0 W/m² | - |
| 1777371799 | 15° C | 99% | 1002.9 hPa | 0 mm | - | 0 W/m² | - |
| 1777371496 | 15° C | 99% | 1002.9 hPa | 0 mm | - | 0 W/m² | - |
| 1777371193 | 15° C | 99% | 1002.9 hPa | 0 mm | - | 0 W/m² | - |
| 1777370889 | 15° C | 98% | 1002.7 hPa | 0 mm | - | 0 W/m² | - |
| 1777370281 | 15° C | 98% | 1002.5 hPa | 0 mm | - | 0 W/m² | - |
| 1777369069 | 15° C | 97% | 1002.5 hPa | 0 mm | - | 0 W/m² | - |
| 1777368768 | 15° C | 97% | 1002.4 hPa | 0 mm | - | 0 W/m² | - |
| 1777368467 | 15° C | 97% | 1002.5 hPa | 0 mm | - | 0 W/m² | - |
| 1777367862 | 15° C | 97% | 1002.6 hPa | 0 mm | - | 0 W/m² | - |
| 1777366648 | 15° C | 97% | 1002.4 hPa | 0 mm | - | 0 W/m² | - |
* Rain latest hour (hover to see other rain measurements)
** Current wind speed in m/s (hover to see current wind gust speed)